Carver, MA

8:04 AM EST on February 09, 2016 (GMT -0500)
Plymouth Municipal

Weather History for KPYM - September, 2012

Change the Weather History Date:

Sunday, September 30, 2012

  Actual Average Record
Temperature  
Mean Temperature 57 °F -  
Max Temperature 60 °F 67 °F 84 °F (1959)
Min Temperature 53 °F 47 °F 32 °F (1951)
Degree Days  
Heating Degree Days 8    
Growing Degree Days 7 (Base 50)    
Moisture  
Dew Point 54 °F    
Average Humidity 91    
Maximum Humidity 94    
Minimum Humidity 83    
Precipitation  
Precipitation 0.55 in - - ()
Sea Level Pressure  
Sea Level Pressure 29.81 in    
Wind  
Wind Speed 5 mph (NNW)    
Max Wind Speed 9 mph    
Max Gust Speed -    
Visibility 8 miles    
Events Rain    
Averages and records for this station are not official NWS values.
T = Trace of Precipitation, MM = Missing Value Source: NWS Daily Summary

Daily Weather History Graph

Daily Weather History Graph

Search for Another Location

Airport or City:

Trip Planner

Search our weather history database for the weather conditions in past years. The results will help you decide how hot, cold, wet, or windy it might be!

Date:

Astronomy

Sep. 30, 2012 Rise Set
Actual Time 6:39 AM EDT 6:25 PM EDT
Civil Twilight 6:11 AM EDT 6:53 PM EDT
Nautical Twilight 5:39 AM EDT 7:25 PM EDT
Astronomical Twilight 5:06 AM EDT 7:58 PM EDT
Moon 6:25 PM EDT (9/30) 7:08 AM EDT (9/30)
Length of Visible Light 12h 41m
Length of Day
11h 46m
Full, 100% of the Moon is Illuminated
Sep 30
Full
Oct 8
Last Quarter
Oct 15
New
Oct 21
First Quarter
Oct 29
Full

Hourly Weather History & Observations

Time (EDT) Temp. Dew Point Humidity Pressure Visibility Wind Dir Wind Speed Gust Speed Precip Events Conditions
12:52 AM 55.9 °F 53.1 °F 90% 29.90 in 10.0 mi NE 3.5 mph - N/A   Overcast
1:52 AM 55.9 °F 53.1 °F 90% 29.90 in 10.0 mi Calm Calm - N/A   Overcast
2:52 AM 55.9 °F 53.1 °F 90% 29.88 in 10.0 mi NNW 3.5 mph - N/A   Overcast
3:52 AM 55.9 °F 53.1 °F 90% 29.88 in 10.0 mi North 4.6 mph - N/A   Overcast
4:52 AM 55.9 °F 53.1 °F 90% 29.86 in 10.0 mi NE 3.5 mph - N/A   Overcast
5:48 AM 55.4 °F 53.6 °F 94% 29.85 in 10.0 mi NNE 3.5 mph - N/A   Overcast
5:52 AM 55.0 °F 53.1 °F 93% 29.85 in 10.0 mi North 4.6 mph - N/A   Overcast
6:52 AM 55.0 °F 53.1 °F 93% 29.84 in 5.0 mi North 4.6 mph - 0.10 in Rain Light Rain
7:06 AM 55.4 °F 53.6 °F 94% 29.84 in 6.0 mi North 5.8 mph - 0.02 in Rain Rain
7:19 AM 55.4 °F 53.6 °F 94% 29.85 in 2.0 mi NNW 4.6 mph - 0.08 in Rain Heavy Rain
7:38 AM 55.4 °F 53.6 °F 94% 29.84 in 4.0 mi NNE 5.8 mph - 0.12 in Rain Light Rain
7:52 AM 55.0 °F 53.1 °F 93% 29.84 in 2.5 mi North 5.8 mph - 0.15 in Rain Rain
7:57 AM 55.4 °F 53.6 °F 94% 29.84 in 3.0 mi North 5.8 mph - 0.01 in Rain Rain
8:32 AM 55.4 °F 53.6 °F 94% 29.82 in 5.0 mi NNE 8.1 mph - 0.04 in Rain Light Rain
8:52 AM 55.9 °F 53.1 °F 90% 29.83 in 7.0 mi NNE 5.8 mph - 0.05 in Rain Light Rain
9:33 AM 55.4 °F 53.6 °F 94% 29.83 in 2.0 mi NNW 6.9 mph - 0.07 in Rain Heavy Rain
9:44 AM 55.4 °F 53.6 °F 94% 29.83 in 3.0 mi North 5.8 mph - 0.09 in Rain Rain
9:52 AM 55.9 °F 54.0 °F 93% 29.83 in 2.5 mi NNW 3.5 mph - 0.12 in Rain Rain
9:59 AM 55.4 °F 53.6 °F 94% 29.83 in 2.5 mi NNW 3.5 mph - 0.01 in Rain Rain
10:03 AM 55.4 °F 53.6 °F 94% 29.83 in 3.0 mi North 4.6 mph - 0.02 in Rain Rain
10:30 AM 55.4 °F 53.6 °F 94% 29.80 in 4.0 mi NNE 8.1 mph - 0.08 in Rain Rain
10:52 AM 55.9 °F 54.0 °F 93% 29.79 in 5.0 mi North 8.1 mph - 0.11 in Rain Rain
11:02 AM 55.4 °F 53.6 °F 94% 29.80 in 10.0 mi North 6.9 mph - 0.00 in Rain Light Rain
11:09 AM 57.2 °F 53.6 °F 88% 29.79 in 10.0 mi North 5.8 mph - 0.00 in Rain Light Rain
11:52 AM 57.0 °F 55.0 °F 93% 29.79 in 10.0 mi North 5.8 mph - 0.01 in   Overcast
12:52 PM 59.0 °F 55.0 °F 87% 29.77 in 10.0 mi NNW 6.9 mph - N/A   Overcast
1:52 PM 57.0 °F 55.0 °F 93% 29.77 in 5.0 mi NW 4.6 mph - 0.01 in Rain Light Rain
2:52 PM 57.9 °F 54.0 °F 87% 29.75 in 10.0 mi West 3.5 mph - 0.00 in   Overcast
3:35 PM 59.0 °F 55.4 °F 88% 29.74 in 10.0 mi WSW 3.5 mph - N/A   Overcast
3:52 PM 59.0 °F 55.0 °F 87% 29.74 in 10.0 mi West 3.5 mph - N/A   Overcast
4:07 PM 59.0 °F 55.4 °F 88% 29.74 in 10.0 mi West 6.9 mph - 0.00 in   Overcast
4:19 PM 59.0 °F 55.4 °F 88% 29.74 in 10.0 mi West 8.1 mph - 0.00 in   Overcast
4:52 PM 59.0 °F 54.0 °F 83% 29.75 in 10.0 mi WSW 9.2 mph - 0.00 in   Overcast
5:52 PM 57.9 °F 53.1 °F 84% 29.74 in 10.0 mi WSW 6.9 mph - N/A   Scattered Clouds
6:52 PM 55.0 °F 52.0 °F 89% 29.75 in 10.0 mi SSW 4.6 mph - N/A   Clear
7:52 PM 55.0 °F 52.0 °F 89% 29.75 in 10.0 mi South 3.5 mph - N/A   Clear
8:52 PM 55.0 °F 53.1 °F 93% 29.76 in 10.0 mi SSW 5.8 mph - N/A   Clear
9:52 PM 55.9 °F 53.1 °F 90% 29.76 in 10.0 mi SSW 8.1 mph - N/A   Clear
10:52 PM 55.9 °F 52.0 °F 87% 29.76 in 10.0 mi SSW 6.9 mph - N/A   Clear
11:52 PM 53.1 °F 50.0 °F 89% 29.75 in 10.0 mi SW 5.8 mph - N/A   Clear